Location: Observatoire de Paris
(48.8363°N, 2.3365°E)
Time: 09:32:44
(UTC+01:00)

BUGSAT 1 - Pass Details

Date: 30 September 2021
Orbit: 556 x 602 km, 98.1° (Epoch: 22 October)

Event Time Altitude Azimuth Distance (km) Brightness Sun altitude
Rises 05:48:07 0° 14° (NNE) 2,792 ? -10.8°
Reaches altitude 10° 05:50:17 10° 15° (NNE) 1,882 ? -10.4°
Maximum altitude 05:54:22 84° 105° (ESE) 574 ? -9.8°
Drops below altitude 10° 05:58:22 10° 193° (SSW) 1,846 ? -9.1°
Sets 06:00:28 0° 194° (SSW) 2,733 ? -8.8°
